Location: Praha
(50.0830°N, 14.4670°E)
Time: 15:42:17
(UTC+02:00)

ISS - Pass Details

Date: 04 October 2019
Orbit: 411 x 421 km, 51.6° (Epoch: 18 October)

Event Time Altitude Azimuth Distance (km) Brightness Sun altitude
Rises 19:43:49 0° 287° (WNW) 2,348 2.0 -11.9°
Reaches altitude 10° 19:45:55 10° 285° (WNW) 1,483 0.5 -12.2°
Maximum altitude 19:49:13 68° 202° (SSW) 447 -3.6 -12.7°
Enters shadow 19:51:11 22° 123° (ESE) 955 -2.5 -13.1°
